Regional Weather Roundup
Issued by NWS Charleston, SC

Home | Current Version | Previous Version | Text Only | Print | Product List | Glossary On
Versions: 1 2 3 4 5 6 7 8 9 10 11 12 13 14 15 16 17 18 19 20 21 22 23 24 25 26 27 28 29 30 31 32 33 34 35 36 37 38 39 40 41 42 43 44 45 46 47 48 49 50
000
ASUS42 KCHS 240127
RWRCHS

REGIONAL WEATHER ROUNDUP
NATIONAL WEATHER SERVICE CHARLESTON SC
900 PM EDT SUN APR 23 2017

NOTE: "FAIR" INDICATES FEW OR NO CLOUDS BELOW 12,000 FEET WITH NO
SIGNIFICANT WEATHER AND/OR OBSTRUCTIONS TO VISIBILITY.

NOT ALL STATIONS ARE QUALITY CONTROLLED. USE DATA WITH CAUTION...
ESPECIALLY DEWPOINT OBSERVATIONS.

SCZ027-030-031-034>040-042>050-240200-
...SOUTHEAST SOUTH CAROLINA...

CITY           SKY/WX    TMP DP  RH WIND       PRES   REMARKS
N CHARLESTON   CLOUDY    74  68  81 SE13      29.80R
WATERFRONT PRK   N/A     74  72  93 SE14      29.78R
JOHNS ISLAND   FAIR      73  72  94 SE12      29.80S
PINOPOLIS        N/A     73  70  88 SE6       29.72R
MONCKS CORNER  FAIR      72  66  83 SE6       29.80S
SUMMERVILLE    FAIR      73  64  73 SE5       29.79F
BEAUFORT MCAS  CLOUDY    76  72  87 SE8       29.76F
BEAUFORT ARPT  FAIR      73  70  88 SE8       29.77S
HILTON HEAD IS CLOUDY    75  72  88 VRB7G14   29.78S
WALTERBORO     CLOUDY    72  64  78 SE7       29.78R
ALLENDALE      CLOUDY    73  64  73 SE10      29.72S

...SOUTHERN MIDLANDS AND PEE DEE...

CITY           SKY/WX    TMP DP  RH WIND       PRES   REMARKS
GEORGETOWN     CLOUDY    72  68  88 SE12      29.84S
KINGSTREE      CLOUDY    68  63  83 E6        29.83R
ORANGEBURG     CLOUDY    67  65  93 E7        29.77S
BARNWELL       DRIZZLE   70  70 100 NE8       29.73F
AIKEN          CLOUDY    61  61 100 N12       29.80F
MANNING        CLOUDY    70  64  83 E10G25    29.80S
COLUMBIA       LGT RAIN  63  59  87 NE10      29.78S
SUMTER         CLOUDY    62  60  95 E12G18    29.79S
FLORENCE       CLOUDY    61  60  97 E14       29.87R
MYRTLE BEACH   MOCLDY    66  64  94 E12       29.86S
N MYRTLE BEACH CLOUDY    66  64  93 NE9       29.86S

$$

GAZ063-065-086>088-099>101-113>116-118-119-134>141-150-240200-
...SOUTHEAST GEORGIA...

CITY           SKY/WX    TMP DP  RH WIND       PRES   REMARKS
SAVANNAH ARPT  CLOUDY    75  65  70 S18       29.75R
HUNTER AAF     PTCLDY    75  72  90 SE13G18   29.74R
FORT STEWART   PTCLDY    73  66  78 SE8       29.72S
STATESBORO     CLOUDY    74  64  71 SE6       29.72S
SYLVANIA       LGT RAIN  75  66  73 S6        29.73S
CLAXTON        MOCLDY    71  71 100 SE3       29.74R

...CSRA...CENTRAL AND FAR SOUTHEAST GEORGIA...

CITY           SKY/WX    TMP DP  RH WIND       PRES   REMARKS
THOMSON        CLOUDY    61  59  94 E9        29.83R
AUGUSTA-BUSH   CLOUDY    67  63  87 N9        29.73F
AUGUSTA-DANIEL CLOUDY    64  59  83 N12       29.75F
SWAINSBORO     CLOUDY    66  66 100 NW3       29.74F
VIDALIA        LGT RAIN  70  64  83 NW3       29.73S
EASTMAN        CLOUDY    68  68 100 W3        29.79R
HAZLEHURST     FAIR      71  68  90 CALM      29.73S
ALMA           CLOUDY    79  63  57 S6        29.73R
WAYCROSS       CLOUDY    80  70  72 S8        29.75R
JESUP          CLOUDY    75  63  64 S8        29.75S
BAXLEY         RAIN      79  70  73 CALM      29.73S
BRUNSWICK      CLOUDY    75  72  88 S9G16     29.78R
SAINT SIMONS   CLOUDY    75  69  81 S10G20    29.77R

$$

SCZ027-028-034-036>038-045-046-048>050-GAZ119-141-240200-
...LAKE AND SUPPLEMENTAL COASTAL OBSERVATIONS...

STATION/POSITION TIME  TEMP    WIND        PRES    WAVE   SWELL
                       AIR SEA DIR/SP/G            HT/PER HT/PER/DIR
                 (UTC) (F)     (DEG/KT/KT) (MB)    (FT/S) (FT/S/D)
WINYAH BAY       0045   72     130/ 12     1010.0S
LAKE MURRAY      0020   61      50/  6/  9 1008.5
ACE BASIN NERRS  0030   74     130/  3     1008.0S
FORT PULASKI     0100   74 75  160/  9/ 14 1008.2
SAPELO ISLAND    0045   75     150/  9     1008.0R

$$

ANZ835-935-AMZ111-154-330-350-352-354-370-450-454-472-240200-
...C-MAN AND BUOY OBSERVATIONS...

STATION/POSITION TIME  TEMP    WIND        PRES    WAVE   SWELL
                       AIR SEA DIR/SP/G            HT/PER HT/PER/DIR
                 (UTC) (F)     (DEG/KT/KT) (MB)    (FT/S) (FT/S/D)
BUOY 41004       0110   74 75  130/ 16/ 21 1009.5
BUOY 41008       0050   74 72  150/ 14/ 16 1007.8R   3/12   2/110/12
FOLLY BEACH CMAN 0100   74     140/ 14/ 17 1009.7R
CAPERS NEARSHORE 0108   74 74  150/ 12/ 17 1009.1R
FRIPP NEARSHORE  0108   74 72  150/ 12/ 17 1007.9F


STATION/POSITION TIME  TEMP    WIND        PRES    WAVE   SWELL
                       AIR SEA DIR/SP/G            HT/PER HT/PER/DIR
                 (UTC) (F)     (DEG/KT/KT) (MB)    (FT/S) (FT/S/D)
5E ST. MARYS GA  0100      73                N/A     4/ 4   2/100/11
FRYING PAN BUOY  0110   75 74  170/ 10/ 12 1011.3
BUOY 41025       0050   72 76   40/ 17/ 21 1012.9R   7/ 9   5/ 50/ 9
CAPE LOOKOUT NC  0100   64      30/ 20/ 23 1013.6R
BUOY 41002       0050   73 75  160/ 17/ 21 1013.7R   4/ 5   2/ 40/11
BUOY 41010       0110   75 79  140/ 25/ 31 1008.5
ST AUGUSTINE FL  0100   74 77  160/ 21/ 23 1009.1R


$$




USA.gov is the U.S. government's official web portal to all federal, state and local government web resources and services.